Flag for Canada Weather past 2 weeks in Charlottetown, Pr.Edward I, Canada

Now
50 °F

Clear.


Feels Like: 48 °F
Forecast: 47 / 70 °F
Wind: 6 mph from Southwest

Location: Charlottetown

Current Time: Aug 30, 2014 at 1:36:07 AM

Latest Report: Aug 30, 2014 at 1:00 AM


Visibility: 15 mi

Pressure: 30.23 "Hg

Humidity: 82%

Dew point: 45 °F

Location of CharlottetownLocation

Historic Weather in Charlottetown — Graph

°F

Charlottetown temperature yesterday

Maximum temperature yesterday: 59 °F (at 12:00 AM)
Minimum temperature yesterday: 46 °F (at 11:00 PM)
Average temperature yesterday: 56 °F

Past Weeks' High & Low Weather Summary

 TemperatureHumidityPressure
High81 °F (Aug 26, 3:00 PM)100% (Aug 15, 10:45 PM)30.23 "Hg (Aug 15, 10:45 PM)
Low46 °F (Aug 29, 11:00 PM)57% (Aug 17, 5:00 PM)29.52 "Hg (Aug 18, 6:00 PM)
Average64 °F84%29.93 "Hg
* Reported Midnight between Aug 14 and Aug 15 — Midnight between Aug 29 and Aug 30, Charlottetown, Weather by CustomWeather, © 2014

Note: Actual official high and low records may vary slightly from our data, if they occured in-between our weather recording intervals... More about our weather records

Advertising

Charlottetown weather history for previous 24 hours

 ConditionsComfort  
Time TempWeatherWind HumidityBarometerVisibility
12:00 AM
Aug 30
50 °FClear.5 mph82%30.23 "Hg15 mi
11:00 PM
Aug 29
46 °FClear.3 mph93%30.21 "Hg15 mi
10:00 PM50 °FClear.5 mph82%30.20 "Hg15 mi
9:00 PM48 °FClear.2 mph87%30.19 "Hg15 mi
8:00 PM52 °FSunny.2 mph82%30.17 "Hg15 mi
7:00 PM55 °FPassing clouds.9 mph67%30.16 "Hg15 mi
6:00 PM57 °FPassing clouds.10 mph63%30.14 "Hg15 mi
4:00 PM57 °FScattered clouds.16 mph63%30.13 "Hg15 mi
3:00 PM59 °FScattered clouds.18 mph63%30.10 "Hg15 mi
2:00 PM59 °FPartly sunny.17 mph63%30.08 "Hg15 mi
1:00 PM59 °FOvercast.17 mph68%30.05 "Hg15 mi
12:00 PM57 °FOvercast.21 mph72%30.02 "Hg15 mi
11:00 AM57 °FSprinkles. Mostly cloudy.17 mph77%29.99 "Hg12 mi
10:00 AM57 °FOvercast.20 mph77%29.96 "Hg15 mi
9:00 AM57 °FSprinkles. Mostly cloudy.16 mph82%29.92 "Hg10 mi
8:00 AM55 °FSprinkles. Fog.14 mph94%29.90 "Hg6 mi
7:00 AM55 °FOvercast.17 mph88%29.85 "Hg15 mi
6:00 AM55 °FSprinkles. Fog.18 mph94%29.81 "Hg4 mi
5:00 AM55 °FSprinkles. Fog.16 mph94%29.78 "Hg4 mi
4:00 AM57 °FSprinkles. Fog.17 mph94%29.76 "Hg4 mi
3:49 AM57 °FSprinkles. Fog.15 mph94%29.75 "Hg4 mi
3:00 AM57 °FLight rain. Fog.14 mph94%29.74 "Hg4 mi
2:00 AM57 °FLight rain. Fog.16 mph100%29.72 "Hg2 mi
1:00 AM59 °FLight rain. Fog.16 mph94%29.71 "Hg4 mi
Weather by CustomWeather, © 2014

See weather overviewHow to use our weather pages